Weather History for KRFD - November, 2012

Change the Weather History Date:

Thursday, November 22, 2012

  Actual Average Record
Temperature  
Mean Temperature 52 °F 36 °F  
Max Temperature 64 °F 44 °F 69 °F (2010)
Min Temperature 39 °F 27 °F -1 °F (1929)
Degree Days  
Heating Degree Days 13 29  
Month to date heating degree days 505 528  
Since 1 July heating degree days 1098 1081  
Cooling Degree Days 0 0  
Month to date cooling degree days 0 0  
Year to date cooling degree days 1227 820  
Growing Degree Days 2 (Base 50)    
Moisture  
Dew Point 42 °F    
Average Humidity 72    
Maximum Humidity 96    
Minimum Humidity 48    
Precipitation  
Precipitation T in 0.09 in 1.21 in (1963)
Month to date precipitation 0.60 1.92  
Year to date precipitation 20.86 33.60  
Snow  
Snow 0.00 in 0.10 in 1.50 in (1945)
Month to date snowfall T 0.7  
Since 1 July snowfall T 0.8  
Since 1 September snowfall T 0.8  
Snow Depth 0.00 in    
Sea Level Pressure  
Sea Level Pressure 29.91 in    
Wind  
Wind Speed 16 mph (SSW)    
Max Wind Speed 32 mph    
Max Gust Speed 40 mph    
Visibility 7 miles    
Events      
T = Trace of Precipitation, MM = Missing Value Source: NWS Daily Summary

Daily Weather History Graph

Daily Weather History Graph

Search for Another Location

Airport or City:

Trip Planner

Search our weather history database for the weather conditions in past years. The results will help you decide how hot, cold, wet, or windy it might be!

Date:

Astronomy

Nov. 22, 2012 Rise Set
Actual Time 6:55 AM CST 4:29 PM CST
Civil Twilight 6:25 AM CST 4:59 PM CST
Nautical Twilight 5:50 AM CST 5:34 PM CST
Astronomical Twilight 5:17 AM CST 6:07 PM CST
Moon 1:19 PM CST (11/22) 1:10 AM CST (11/22)
Length of Visible Light 10h 34m
Length of Day
9h 33m
Waxing Gibbous, 71% of the Moon is Illuminated
Nov 22
Waxing Gibbous
Nov 28
Full
Dec 6
Last Quarter
Dec 13
New
Dec 19
First Quarter

Hourly Weather History & Observations

Time (CST) Temp. Windchill Dew Point Humidity Pressure Visibility Wind Dir Wind Speed Gust Speed Precip Events Conditions
12:54 AM 44.1 °F 38.1 °F 42.1 °F 93% 30.06 in 3.0 mi South 11.5 mph - N/A   Scattered Clouds
1:34 AM 42.8 °F 36.6 °F 42.8 °F 100% 30.05 in 2.0 mi South 11.5 mph - N/A   Partly Cloudy
1:54 AM 42.1 °F 37.7 °F 41.0 °F 96% 30.06 in 2.0 mi South 6.9 mph - N/A   Partly Cloudy
2:54 AM 43.0 °F 36.8 °F 41.0 °F 93% 30.04 in 2.0 mi South 11.5 mph - N/A   Partly Cloudy
3:54 AM 44.1 °F 38.1 °F 42.1 °F 93% 30.01 in 2.0 mi SSW 11.5 mph - N/A   Partly Cloudy
4:03 AM 44.6 °F 38.8 °F 42.8 °F 93% 30.01 in 3.0 mi SSW 11.5 mph - N/A   Partly Cloudy
4:54 AM 44.1 °F 38.1 °F 42.1 °F 93% 30.00 in 4.0 mi South 11.5 mph - N/A   Partly Cloudy
5:54 AM 44.1 °F 38.6 °F 41.0 °F 89% 29.99 in 4.0 mi South 10.4 mph - N/A   Partly Cloudy
6:54 AM 44.1 °F 37.4 °F 41.0 °F 89% 29.97 in 5.0 mi South 13.8 mph - N/A   Mostly Cloudy
7:54 AM 45.0 °F 39.3 °F 42.1 °F 90% 29.96 in 4.0 mi South 11.5 mph - N/A   Mostly Cloudy
8:54 AM 48.0 °F - 44.1 °F 86% 29.94 in 6.0 mi South 12.7 mph - N/A   Mostly Cloudy
9:54 AM 52.0 °F - 45.0 °F 77% 29.93 in 7.0 mi South 13.8 mph - N/A   Overcast
10:54 AM 57.0 °F - 44.1 °F 62% 29.89 in 8.0 mi South 16.1 mph 25.3 mph N/A   Mostly Cloudy
11:54 AM 63.0 °F - 43.0 °F 48% 29.84 in 10.0 mi SSW 25.3 mph 34.5 mph N/A   Overcast
12:54 PM 62.1 °F - 44.1 °F 52% 29.82 in 10.0 mi SSW 18.4 mph 27.6 mph N/A   Overcast
1:54 PM 63.0 °F - 45.0 °F 52% 29.80 in 10.0 mi SSW 26.5 mph 39.1 mph N/A   Overcast
2:54 PM 61.0 °F - 46.0 °F 58% 29.80 in 10.0 mi SSW 17.3 mph 28.8 mph N/A   Overcast
3:54 PM 55.9 °F - 50.0 °F 80% 29.80 in 10.0 mi SSW 12.7 mph - 0.00 in   Overcast
4:54 PM 55.0 °F - 50.0 °F 83% 29.81 in 10.0 mi SSW 12.7 mph - 0.00 in   Overcast
5:54 PM 55.9 °F - 48.9 °F 77% 29.81 in 10.0 mi SSW 13.8 mph - N/A   Overcast
6:54 PM 57.0 °F - 50.0 °F 77% 29.80 in 10.0 mi SW 15.0 mph - N/A   Overcast
7:54 PM 57.9 °F - 48.9 °F 72% 29.80 in 10.0 mi WSW 16.1 mph 26.5 mph N/A   Mostly Cloudy
8:54 PM 50.0 °F - 39.9 °F 68% 29.85 in 10.0 mi West 17.3 mph 28.8 mph N/A   Scattered Clouds
9:54 PM 43.0 °F 33.8 °F 34.0 °F 71% 29.88 in 10.0 mi WNW 23.0 mph 34.5 mph N/A   Mostly Cloudy
10:54 PM 39.9 °F 30.2 °F 32.0 °F 73% 29.91 in 10.0 mi West 20.7 mph 27.6 mph N/A   Scattered Clouds
11:35 PM 39.2 °F 29.8 °F 30.2 °F 70% 29.93 in 10.0 mi WNW 18.4 mph 34.5 mph N/A   Mostly Cloudy
11:54 PM 39.0 °F 27.2 °F 28.9 °F 67% 29.94 in 10.0 mi WNW 29.9 mph 39.1 mph N/A   Overcast